Home   Weather   Harstad   Past weeks

Flag for Norway Past Weather in Harstad, Norway — Yesterday and Last 2 Weeks

Now
28 °F

Light snow. Ice fog.


Feels Like: 20 °F
Forecast: 27 / 37 °F
Wind: 8 mph from North

Location: Evenes

Current Time: Jan 21, 2017 at 1:16:43 am

Latest Report: Jan 21, 2017 at 12:20 am


Visibility: 1 mi

Pressure: 29.89 "Hg

Humidity: 100%

Dew Point: 28 °F

Location of HarstadLocation

Past Weather in Harstad — Graph

°F

Harstad Temperature Yesterday

Maximum temperature yesterday: 30 °F (at 7:50 am)
Minimum temperature yesterday: 27 °F (at 12:50 am)
Average temperature yesterday: 28 °F

High & Low Weather Summary for the Past Weeks

 TemperatureHumidityPressure
High45 °F (Jan 18, 3:50 pm)100% (Jan 6, 2:50 am)30.12 "Hg (Jan 6, 2:50 am)
Low5 °F (Jan 15, 6:50 pm)54% (Jan 19, 6:50 pm)28.74 "Hg (Jan 12, 5:50 am)
Average29 °F88%29.45 "Hg
* Reported Jan 5 11:50 pm — Jan 20 11:50 pm, Harstad, Weather by CustomWeather, © 2017

Note: Actual official high and low records may vary slightly from our data, if they occured in-between our weather recording intervals... More about our weather records

Advertising

Harstad Weather History for the Previous 24 Hours

Scroll right to see more
 ConditionsComfort  
Time TempWeatherWind HumidityBarometerVisibility
11:50 pm
Fri, Jan 20
28 °FLight snow. Overcast.13 mph93%29.86 "Hg1 mi
11:20 pm28 °FLight snow. Partly cloudy.7 mph86%29.86 "HgN/A
10:50 pm28 °FSnow flurries. Partly cloudy.7 mph93%29.83 "Hg4 mi
9:50 pm27 °FHeavy snow. Ice fog.7 mph100%29.83 "Hg1 mi
9:20 pm27 °FLight snow. Ice fog.6 mph100%29.83 "Hg1 mi
8:50 pm27 °FSnow showers. Ice fog.3 mph100%29.83 "Hg1 mi
8:20 pm27 °FLight snow. Partly cloudy.2 mph93%29.83 "HgN/A
7:50 pm27 °FLight snow. Ice fog.5 mph93%29.83 "Hg2 mi
7:20 pm27 °FLight snow. Ice fog.3 mph86%29.83 "Hg4 mi
6:50 pm27 °FLight snow. Partly cloudy.9 mph86%29.83 "Hg5 mi
6:20 pm28 °FLight snow. Ice fog.6 mph74%29.83 "Hg4 mi
5:50 pm28 °FLight snow. Partly cloudy.13 mph74%29.83 "Hg4 mi
5:20 pm30 °FLight snow. Passing clouds.9 mph59%29.80 "HgN/A
4:50 pm28 °FLight snow. Passing clouds.12 mph80%29.80 "Hg6 mi
3:50 pm28 °FLight snow. Passing clouds.8 mph86%29.77 "Hg4 mi
2:50 pm28 °FLight snow. Partly cloudy.12 mph86%29.74 "Hg4 mi
2:20 pm28 °FSnow flurries. Partly cloudy.3 mph93%29.74 "HgN/A
1:50 pm28 °FLight snow. Ice fog.2 mph93%29.74 "Hg3 mi
1:20 pm28 °FLight snow. Ice fog.5 mph93%29.71 "Hg2 mi
12:50 pm30 °FLight snow. Ice fog.3 mph80%29.71 "Hg4 mi
11:50 am28 °FSnow flurries. Broken clouds.8 mph86%29.71 "Hg3 mi
10:50 am28 °FSnow flurries. Broken clouds.14 mph80%29.71 "Hg4 mi
10:20 am30 °FBroken clouds.13 mph59%29.68 "HgN/A
9:50 am30 °FPartly cloudy.12 mph55%29.68 "HgN/A
9:20 am28 °FPassing clouds.7 mph69%29.68 "HgN/A
8:50 am28 °FLight snow. Ice fog.9 mph69%29.68 "HgN/A
8:20 am28 °FSnow flurries. Partly cloudy.9 mph69%29.68 "HgN/A
7:50 am30 °FPartly cloudy.9 mph64%29.65 "HgN/A
6:50 am28 °FSnow flurries. Ice fog.12 mph93%29.62 "Hg5 mi
5:50 am28 °FSnow flurries. Mostly cloudy.8 mph93%29.62 "Hg4 mi
4:50 am28 °FLight snow. Overcast.7 mph93%29.62 "Hg5 mi
4:20 am28 °FSnow. Ice fog.5 mph100%29.62 "Hg1 mi
3:50 am28 °FLight snow. Overcast.5 mph93%29.62 "Hg1 mi
3:20 am28 °FSnow flurries. Partly cloudy.7 mph93%29.62 "HgN/A
2:50 am28 °FSnow flurries. Partly cloudy.9 mph93%29.62 "HgN/A
1:50 am27 °FSnow flurries. Ice fog.5 mph100%29.65 "Hg1 mi
Weather by CustomWeather, © 2017

See weather overviewHow to use our weather pages